Hof Plauen, Germany

6:04 AM CEST on May 29, 2017 (GMT +0200)
Hof-Plauen

Weather History for EDQM - December, 2012

Change the Weather History Date:

Thursday, December 20, 2012

  Actual Average Record
Temperature  
Mean Temperature 30 °F -  
Max Temperature 32 °F 31 °F 50 °F (2015)
Min Temperature 28 °F 25 °F 10 °F (2001)
Degree Days  
Heating Degree Days 34    
Moisture  
Dew Point 29 °F    
Average Humidity 88    
Maximum Humidity 100    
Minimum Humidity 80    
Precipitation  
Precipitation 0.00 in - - ()
Sea Level Pressure  
Sea Level Pressure 30.07 in    
Wind  
Wind Speed 6 mph ()    
Max Wind Speed 13 mph    
Max Gust Speed -    
Visibility 5.6 miles    
Events Fog    
Averages and records for this station are not official NWS values.
T = Trace of Precipitation, MM = Missing Value Source: Averaged Metar Reports

Daily Weather History Graph

Daily Weather History Graph

Search for Another Location

Airport or City:

Trip Planner

Search our weather history database for the weather conditions in past years. The results will help you decide how hot, cold, wet, or windy it might be!

Date:

Astronomy

Dec. 20, 2012 Rise Set
Actual Time 8:09 AM CET 4:10 PM CET
Civil Twilight 7:30 AM CET 4:49 PM CET
Nautical Twilight 6:48 AM CET 5:31 PM CET
Astronomical Twilight 6:08 AM CET 6:11 PM CET
Moon 11:53 AM CET (12/20) 12:03 AM CET (12/20)
Length of Visible Light 9h 19m
Length of Day
8h 01m
First Quarter, 52% of the Moon is Illuminated
Dec 20
First Quarter
Dec 28
Full
Jan 5
Last Quarter
Jan 11
New
Jan 19
First Quarter

Hourly Weather History & Observations

Time (CET) Temp. Windchill Dew Point Humidity Pressure Visibility Wind Dir Wind Speed Gust Speed Precip Events Conditions
12:00 AM 33 °F - 33 °F 100% 30.28 in 0 mi SSE 4.5 mph - - Fog Fog
12:20 AM 33.8 °F 30.8 °F 32.0 °F 93% 30.18 in 0.1 mi East 3.5 mph - N/A Fog Fog
12:50 AM 33.8 °F 29.6 °F 32.0 °F 93% 30.18 in 0.9 mi ESE 4.6 mph - N/A Fog Fog
1:00 AM 33 °F - 33 °F 100% 30.27 in 2 mi SE 4.5 mph - - Fog Fog
1:20 AM 33.8 °F 29.6 °F 32.0 °F 93% 30.18 in 1.7 mi East 4.6 mph - N/A   Overcast
1:50 AM 33.8 °F 30.8 °F 32.0 °F 93% 30.18 in 4.3 mi ESE 3.5 mph - N/A   Overcast
2:00 AM 33 °F - 33 °F 99% 30.27 in 5 mi SE 4.5 mph - -   Overcast
2:20 AM 33.8 °F 30.8 °F 32.0 °F 93% 30.18 in 5.6 mi SE 3.5 mph - N/A   Overcast
2:50 AM 33.8 °F 28.6 °F 32.0 °F 93% 30.18 in 4.3 mi SSE 5.8 mph - N/A   Overcast
3:00 AM 33 °F - 33 °F 97% 30.26 in 3 mi SE 4.5 mph - -   Mist
3:20 AM 33.8 °F 27.7 °F 30.2 °F 87% 30.18 in 6.2 mi ESE 6.9 mph - N/A   Overcast
3:50 AM 32.0 °F 27.5 °F 30.2 °F 93% 30.15 in 5.0 mi ESE 4.6 mph - N/A   Overcast
4:20 AM 32.0 °F 27.5 °F 30.2 °F 93% 30.15 in 5.6 mi ESE 4.6 mph - N/A   Overcast
4:50 AM 32.0 °F 26.4 °F 30.2 °F 93% 30.15 in 6.2 mi SE 5.8 mph - N/A   Overcast
5:00 AM 32 °F - 31 °F 93% 30.24 in 5 mi SE 8.9 mph - -   Overcast
5:20 AM 32.0 °F 26.4 °F 30.2 °F 93% 30.15 in 3.7 mi SE 5.8 mph - N/A   Overcast
5:50 AM 32.0 °F 26.4 °F 30.2 °F 93% 30.15 in 4.3 mi ESE 5.8 mph - N/A   Overcast
6:20 AM 32.0 °F 27.5 °F 28.4 °F 87% 30.12 in 5.0 mi ESE 4.6 mph - N/A   Overcast
6:50 AM 30.2 °F 24.3 °F 28.4 °F 93% 30.12 in 6.2 mi SE 5.8 mph - N/A   Overcast
7:00 AM 31 °F - 30 °F 94% 30.22 in 6 mi SE 6.7 mph - -   Mostly Cloudy
7:20 AM 30.2 °F 23.4 °F 28.4 °F 93% 30.12 in 6.2 mi ESE 6.9 mph - N/A   Overcast
7:50 AM 30.2 °F 25.4 °F 28.4 °F 93% 30.12 in 3.7 mi ESE 4.6 mph - N/A   Overcast
8:00 AM 31 °F - 30 °F 93% 30.20 in 5 mi SE 4.5 mph - -   Overcast
8:20 AM 30.2 °F 23.4 °F 28.4 °F 93% 30.09 in 6.2 mi ESE 6.9 mph - N/A   Overcast
8:50 AM 30.2 °F 23.4 °F 28.4 °F 93% 30.09 in 5.0 mi ESE 6.9 mph - N/A   Overcast
9:00 AM 31 °F - 30 °F 96% 30.20 in 6 mi SE 4.5 mph - -   Mostly Cloudy
9:20 AM 32.0 °F 24.8 °F 28.4 °F 87% 30.09 in 6.2 mi ESE 8.1 mph - N/A   Overcast
10:20 AM 30.2 °F 21.9 °F 28.4 °F 93% 30.09 in 6.2 mi ESE 9.2 mph - N/A   Overcast
10:50 AM 30.2 °F 22.6 °F 28.4 °F 93% 30.09 in 6.2 mi ESE 8.1 mph - N/A   Mostly Cloudy
11:00 AM 31 °F - 29 °F 91% 30.18 in 7 mi ESE 6.7 mph - -   Mostly Cloudy
11:20 AM 32.0 °F 24.8 °F 28.4 °F 87% 30.06 in 6.2 mi East 8.1 mph - N/A   Mostly Cloudy
11:50 AM 32.0 °F 23.6 °F 28.4 °F 87% 30.06 in 6.2 mi ESE 10.4 mph - N/A   Mostly Cloudy
12:00 PM 32 °F - 29 °F 84% 30.15 in 7 mi SE 8.9 mph - -   Mostly Cloudy
12:20 PM 32.0 °F 24.2 °F 28.4 °F 87% 30.04 in 6.2 mi ESE 9.2 mph - N/A   Overcast
12:50 PM 32.0 °F 24.8 °F 28.4 °F 87% 30.04 in 6.2 mi ESE 8.1 mph - N/A   Overcast
1:00 PM 32 °F - 29 °F 82% 30.12 in 10 mi ESE 8.9 mph - -   Mostly Cloudy
1:20 PM 32.0 °F 24.2 °F 28.4 °F 87% 30.01 in 6.2 mi ESE 9.2 mph - N/A   Mostly Cloudy
1:50 PM 32.0 °F 23.0 °F 26.6 °F 80% 30.01 in 6.2 mi ESE 11.5 mph - N/A   Mostly Cloudy
2:00 PM 32 °F - 28 °F 80% 30.10 in 9 mi SE 13.4 mph - -   Mostly Cloudy
2:20 PM 32.0 °F 24.8 °F 28.4 °F 87% 30.01 in 6.2 mi ESE 8.1 mph - N/A   Overcast
2:50 PM 32.0 °F 24.2 °F 28.4 °F 87% 29.98 in 6.2 mi ESE 9.2 mph - N/A   Overcast
3:00 PM 32 °F - 29 °F 84% 30.07 in 9 mi SE 8.9 mph - -   Mostly Cloudy
3:20 PM 32.0 °F 24.8 °F 26.6 °F 80% 29.98 in 6.2 mi ESE 8.1 mph - N/A   Overcast
3:50 PM 32.0 °F 24.2 °F 26.6 °F 80% 29.98 in 6.2 mi ESE 9.2 mph - N/A   Overcast
4:20 PM 32.0 °F 24.2 °F 26.6 °F 80% 29.98 in 6.2 mi ESE 9.2 mph - N/A   Overcast
4:50 PM 32.0 °F 24.8 °F 26.6 °F 80% 29.95 in 6.2 mi ESE 8.1 mph - N/A   Overcast
5:00 PM 31 °F - 28 °F 86% 30.04 in 7 mi SE 8.9 mph - -   Mostly Cloudy
5:20 PM 32.0 °F 24.8 °F 26.6 °F 80% 29.95 in 6.2 mi ESE 8.1 mph - N/A   Overcast
5:50 PM 32.0 °F 24.8 °F 26.6 °F 80% 29.95 in 6.2 mi ESE 8.1 mph - N/A   Overcast
6:00 PM 31 °F - 28 °F 85% 30.03 in 7 mi ESE 8.9 mph - -   Mostly Cloudy
6:20 PM 32.0 °F 24.2 °F 26.6 °F 80% 29.92 in 6.2 mi ESE 9.2 mph - N/A   Overcast
6:50 PM 32.0 °F 23.6 °F 26.6 °F 80% 29.92 in 6.2 mi ESE 10.4 mph - N/A   Overcast
7:00 PM 31 °F - 28 °F 86% 30.01 in 7 mi SE 8.9 mph - -   Mostly Cloudy
7:20 PM 32.0 °F 24.8 °F 26.6 °F 80% 29.92 in 6.2 mi ESE 8.1 mph - N/A   Overcast
7:50 PM 32.0 °F 24.2 °F 26.6 °F 80% 29.92 in 6.2 mi SE 9.2 mph - N/A   Overcast
8:00 PM 31 °F - 28 °F 86% 30.00 in 6 mi ESE 11.2 mph - -   Overcast
8:20 PM 30.2 °F 21.3 °F 26.6 °F 86% 29.92 in 6.2 mi ESE 10.4 mph - N/A   Overcast
8:50 PM 30.2 °F 21.3 °F 26.6 °F 86% 29.89 in 6.2 mi ESE 10.4 mph - N/A   Overcast
9:00 PM 31 °F - 28 °F 83% 29.99 in 6 mi SE 13.4 mph - -   Overcast
9:20 PM 30.2 °F 21.3 °F 26.6 °F 86% 29.89 in 6.2 mi ESE 10.4 mph - N/A   Overcast
9:50 PM 30.2 °F 21.3 °F 26.6 °F 86% 29.89 in 6.2 mi ESE 10.4 mph - N/A   Overcast
10:20 PM 30.2 °F 21.9 °F 26.6 °F 86% 29.89 in 6.2 mi ESE 9.2 mph - N/A   Overcast
10:50 PM 30.2 °F 21.3 °F 24.8 °F 80% 29.89 in 6.2 mi ESE 10.4 mph - N/A   Overcast
11:00 PM 29 °F - 27 °F 87% 29.97 in 5 mi SE 11.2 mph - -   Overcast
11:20 PM 30.2 °F 21.9 °F 24.8 °F 80% 29.86 in 6.2 mi ESE 9.2 mph - N/A   Overcast
11:50 PM 28.4 °F 19.1 °F 24.8 °F 86% 29.86 in 6.2 mi ESE 10.4 mph - N/A   Overcast